Regional Weather Roundup
Issued by NWS

Home | Current Version | Previous Version | Graphics & Text | Print | Product List | Glossary On
Versions: 1 2 3 4 5 6 7 8 9 10 11 12 13 14 15 16 17 18 19 20 21 22 23 24 25 26 27 28 29 30 31 32 33 34 35 36 37 38 39 40 41 42 43 44 45 46 47 48 49 50
000
ASUS45 KBOU 011407
RWRCO

WEATHER ROUNDUP FOR COLORADO
NATIONAL WEATHER SERVICE DENVER/BOULDER CO
700 AM MST WED MAR 01 2017

NOTE: "FAIR" INDICATES FEW OR NO CLOUDS BELOW 12000 FEET WITH NO
SIGNIFICANT WEATHER AND/OR OBSTRUCTIONS TO VISIBILITY.

COZ001>005-013-030-031-011500-
...NORTHWEST COLORADO...

CITY           SKY/WX    TMP DP  RH WIND       PRES   REMARKS
CRAIG          FAIR       2  -1  88 SE5       30.32R WCI  -8
HAYDEN         FAIR      10   0  61 E5        30.30R WCI   2
MEEKER         FAIR       9   4  80 E5        30.32R WCI   1
MOUNT WERNER   NOT AVBL
STEAMBOAT SPGS FAIR      13   6  73 CALM      30.29R
WALDEN         NOT AVBL
$$

COZ006>008-011-011500-
...WEST CENTRAL VALLEYS...

CITY           SKY/WX    TMP DP  RH WIND       PRES   REMARKS
GRAND JUNCTION FAIR      19  13  77 SE13      30.38R WCI   6
MONTROSE       FAIR      12   4  70 SE10      30.40R WCI  -1
EAGLE          PTCLDY     7   1  78 E6        30.36R WCI  -3
RIFLE          CLOUDY    17  12  80 CALM      30.38R
DELTA          FAIR      20   9  64 E8        30.41R WCI  10
NUCLA          FAIR      14   5  67 E8        30.39R WCI   3
$$

COZ017>023-064>068-011500-
...SOUTHWEST COLORADO...

CITY           SKY/WX    TMP DP  RH WIND       PRES   REMARKS
DURANGO        FAIR       7   1  76 E6        30.26R WCI  -3
CORTEZ         FAIR       7   3  84 NE3       30.32R
PAGOSA SPRINGS FAIR     N/A N/A N/A CALM      30.25R
TELLURIDE      FAIR       3  -3  78 SE7       30.26R WCI -10
WOLF CREEK PAS   N/A      0   0 100 CALM      30.16R
$$

COZ009-010-012-014-032>034-037-058>063-011500-
...CENTRAL COLORADO...

CITY           SKY/WX    TMP DP  RH WIND       PRES   REMARKS
ASPEN          FAIR       0  -6  76 SW10      30.28R WCI -16
BUENA VISTA    FAIR      15  -5  40 N18G24    30.19R WCI  -1
COPPER MTN     CLOUDY     1  -8  66 MISG      30.06R HAZE
BERTHOUD PASS  SNOW      -8 -17  65 MISG      29.95R VSB 1/4
COTTONWOOD PAS FAIR      12  -9  37 W12G26    30.11R WCI  -2
GUNNISON       FAIR       0  -5  79 CALM      30.31R
KREMMLING      CLOUDY    19  10  68 W9        30.28R WCI   9
LEADVILLE      CLOUDY     1  -7  68 E7        30.15R WCI -12
MONARCH PASS   FAIR      -4  -9  77 W40       30.13R WCI -34
SALIDA         FAIR      21  -8  28 W10       30.27R WCI  10
SUNLIGHT       NOT AVBL
WILKERSON PASS FAIR       1 -11  55 W12G23    30.02R WCI -15
$$

COZ069>075-011500-
...SAN LUIS VALLEY/SANGRE DE CRISTO MOUNTAINS...

CITY           SKY/WX    TMP DP  RH WIND       PRES   REMARKS
ALAMOSA        FAIR      13   7  77 W3        30.25R
LA VETA PASS   FAIR       9  -4  56 S36G47    30.06R WCI -16
SAGUACHE       FAIR      14   1  57 NW16      30.24R WCI  -2
$$

COZ035-036-038>040-011500-
...NORTHERN COLORADO FRONT RANGE...

CITY           SKY/WX    TMP DP  RH WIND       PRES   REMARKS
DENVER INTL AP FAIR      15   2  56 SE14      30.10R WCI   0
DMNS CITY PARK   N/A     28  -5  23 N3        30.12R
AURORA         PTCLDY    20  -1  38 W14       30.11R WCI   7
FRONT RANGE AP CLEAR     12   3  67 S5        30.12  WCI   4
ERIE MUNI ARPT NOT AVBL
BOULDER MUN AP FAIR      25   5  42 E9        30.09R WCI  15
CENTENNIAL     FAIR      26  -4  27 NW14      30.10R WCI  14
BROOMFIELD     PTCLDY    28  -2  26 W31G44    30.08R WCI  12
FORT COLLINS   FAIR      23   5  46 CALM      30.10R
LONGMONT       NOT AVBL
$$

COZ041-046-047-076>085-087-088-011500-
...PIKES PEAK/PALMER DIVIDE AND SOUTHERN FOOTHILLS...

CITY           SKY/WX    TMP DP  RH WIND       PRES   REMARKS
COLO. SPRINGS  FAIR      21  -3  35 NW7       30.12R WCI  12
A. F. ACADEMY  FAIR      23  -8  25 NW14G22   30.08R WCI  11
SCHRIEVER AFB  FAIR      18  -2  42 NW7       30.12R WCI   8
ELLICOTT       FAIR     N/A N/A N/A NE10        N/A
FALCON         FAIR      17  -3  42 NW10      30.11R WCI   4
FORT CARSON    FAIR      20  -1  39 CALM      30.11R
LIMON          FAIR       5  -2  72 W6        30.14R WCI  -6
MONUMENT HILL  FAIR      12  -4  48 W7        30.09R WCI   2
TRINIDAD       FAIR      16  12  84 NW6       30.16R WCI   7
$$

COZ042>045-048>051-090-091-011500-
...NORTHEAST COLORADO...

CITY           SKY/WX    TMP DP  RH WIND       PRES   REMARKS
GREELEY ARPT   FAIR      26   8  46 NW12      30.12R WCI  16
AKRON          FAIR      25   9  50 NW30G40   30.11R WCI   8
BURLINGTON     FAIR      17   8  67 W10       30.15R WCI   5
WRAY           FAIR      25  14  63 W10       30.14R WCI  15
STERLING       FAIR      23  10  58 N3        30.14R
HOLYOKE        FAIR      30  14  51 NW15G25   30.13R WCI  19
FORT MORGAN    FAIR      27   8  44 NW24G33   30.14R WCI  13
$$

COZ086-089-092>099-011500-
...SOUTHEAST COLORADO...

CITY           SKY/WX    TMP DP  RH WIND       PRES   REMARKS
PUEBLO         FAIR      18   8  65 CALM      30.15R
LA JUNTA       FAIR      18  13  80 N5        30.20R WCI  11
LAMAR          FAIR      20  15  81 W6        30.19R WCI  12
SPRINGFIELD      N/A     18  13  80 W12       30.18R WCI   5
$$



USA.gov is the U.S. government's official web portal to all federal, state and local government web resources and services.